Simultaneous Nadir Overpasses (SNOs) Predictions

Prediction of SNOs between AQUA and NOAA-19 Satellite Orbit:

Table of predicted SNOs for the next 14.0 days since TLE Epoch: 7/1/2016
Index Date (AQUA) Time (AQUA) Lat,Lon (AQUA) SZA (AQUA ) Date (NOAA-19) Time (NOAA-19) Lat,Lon (NOAA-19) SZA (NOAA-19 ) Distance(km) Time Diff (sec)
1 07/03/2016 07:06:35 -80.86,-145.74 119.79 07/03/2016 07:05:46 -80.86,-145.82 119.75 1.66 49
2 07/03/2016 07:56:02 80.86, 21.87 60.22 07/03/2016 07:56:51 80.85, 21.95 60.18 1.80 49
3 07/05/2016 12:40:19 80.86, -49.24 60.44 07/05/2016 12:39:54 80.86, -49.17 60.44 1.34 25
4 07/05/2016 13:29:45 -80.86, 118.48 119.58 07/05/2016 13:30:49 -80.85, 118.34 119.59 2.44 64
5 07/07/2016 18:14:02 -80.86, 47.37 119.33 07/07/2016 18:13:52 -80.87, 47.25 119.30 2.28 10
6 07/09/201
